Regional Weather Roundup
Issued by NWS

Home | Current Version | Previous Version | Text Only | Print | Product List | Glossary Off
Versions: 1 2 3 4 5 6 7 8 9 10 11 12 13 14 15 16 17 18 19 20 21 22 23 24 25 26 27 28 29 30 31 32 33 34 35 36 37 38 39 40 41 42 43 44 45 46 47 48 49 50

000
ASUS43 KFSD 011010
RWRSD

WEATHER ROUNDUP FOR SOUTH DAKOTA
NATIONAL WEATHER SERVICE SIOUX FALLS SD
500 AM CDT WED JUL 01 2015

NOTE: "FAIR" INDICATES FEW OR NO CLOUDS BELOW 12,000 FEET WITH NO
SIGNIFICANT WEATHER AND/OR OBSTRUCTIONS TO VISIBILITY.


SDZ001>005-009-010-012>017-011100-
NORTHWEST AND NORTH CENTRAL SOUTH DAKOTA

CITY           SKY/WX    TMP DP  RH WIND       PRES   REMARKS
BUFFALO          N/A     64  61  90 CALM      29.86S
FAITH            N/A     60  58  92 E5        29.88S
MOBRIDGE       PTCLDY    65  64  97 SE6       29.85R
$$

SDZ012>016-024>037-041>051-057-063-072>074-011100-
SOUTHWEST AND SOUTH CENTRAL SOUTH DAKOTA

CITY           SKY/WX    TMP DP  RH WIND       PRES   REMARKS
RAPID CTY ARPT CLEAR     66  62  87 NW9       29.92S
PIERRE         PTCLDY    63  62  97 E9        29.85R FOG
CUSTER         PTCLDY    60  53  77 NW5       30.10S
ELLSWORTH AFB  PTCLDY    65  63  93 W8        29.91F
PHILIP         CLEAR     64  63  96 W8        29.85F
PINE RIDGE     PTCLDY    64  60  87 SW8       29.93R
SPEARFISH      FAIR      64  55  72 W6        30.00S
WINNER         FAIR      66  59  78 S3        29.85R
$$

SDZ004>011-016>023-039-040-011100-
NORTHEAST SOUTH DAKOTA

CITY           SKY/WX    TMP DP  RH WIND       PRES   REMARKS
ABERDEEN       LGT RAIN  65  63  93 E7        29.89S FOG
WATERTOWN      CLOUDY    64  61  90 CALM      29.92S
BROOKINGS      CLOUDY    63  57  82 E6        29.92R
SISSETON         N/A     62  61  96 SE6       29.91F
$$

SDZ017-020-022-023-036>040-048>070-011100-
SOUTHEAST SOUTH DAKOTA

CITY           SKY/WX    TMP DP  RH WIND       PRES   REMARKS
SIOUX FALLS    CLOUDY    64  62  93 NW3       29.91R THUNDER
HURON          CLOUDY    65  64  97 E7        29.87F FOG
CHAMBERLAIN    PTCLDY    63  62  97 SE6       29.84S
MITCHELL       CLOUDY    66  65  96 E5        29.86S FOG
YANKTON        PTCLDY    64  61  88 E7        29.83F
$$

ABBREVIATIONS USED IN REMARKS
   TC - TEMPERATURE IN CELSIUS
  WCI - WIND CHILL INDEX
   HX - HEAT INDEX
  VSB - VISIBILITY




USA.gov is the U.S. government's official web portal to all federal, state and local government web resources and services.